Regional Weather Roundup
Issued by NWS

Home | Current Version | Previous Version | Text Only | Print | Product List | Glossary On
Versions: 1 2 3 4 5 6 7 8 9 10 11 12 13 14 15 16 17 18 19 20 21 22 23 24 25 26 27 28 29 30 31 32 33 34 35 36 37 38 39 40 41 42 43 44 45 46 47 48 49 50
000
ASUS43 KLMK 161102
RWRKY
KENTUCKY REGIONAL WEATHER ROUNDUP
NATIONAL WEATHER SERVICE LOUISVILLE KY
600 AM EST SAT DEC 16 2017

NOTE "FAIR" INDICATES FEW OR NO CLOUDS BELOW 12,000 FEET
WITH NO SIGNIFICANT WEATHER AND/OR OBSTRUCTIONS TO VISIBILITY.

KYZ001>023-026-027-061>063-070>075-161200-
WESTERN AND SOUTH CENTRAL KENTUCKY

CITY           SKY/WX    TMP DP  RH WIND       PRES   REMARKS
PADUCAH        PTCLDY    34  25  69 S8        30.12F WCI  27
HENDERSON      CLEAR     33  27  78 S9        30.11F WCI  25
OWENSBORO      PTCLDY    32  27  81 S10       30.13F WCI  24
HOPKINSVILLE   CLEAR     32  25  74 S9        30.16S WCI  24
BOWLING GREEN  CLEAR     31  25  78 SW3       30.18S
GLASGOW        NOT AVBL
$$

KYZ024-025-028>034-038-045-046-053-161200-
NORTH CENTRAL KENTUCKY

CITY           SKY/WX    TMP DP  RH WIND       PRES   REMARKS
LOUISVILLE/SDF CLEAR     36  25  64 SW10G21   30.11F WCI  28
LOUISVILLE/LOU CLEAR     33  26  75 S9        30.12F WCI  25
FORT KNOX      CLEAR     31  24  75 S8        30.10F WCI  23
$$

KYZ035>037-039>044-047>052-055>060-089>105-161200-
NORTHEAST KENTUCKY

CITY           SKY/WX    TMP DP  RH WIND       PRES   REMARKS
LEXINGTON      CLEAR     32  23  69 S12       30.12S WCI  23
COVINGTON      MOCLDY    34  26  72 SW10      30.07R WCI  26
FRANKFORT      CLEAR     33  22  63 SW10      30.11S WCI  25
$$

KYZ054-064>069-076>088-106>120-161200-
SOUTHEAST KENTUCKY

CITY           SKY/WX    TMP DP  RH WIND       PRES   REMARKS
JACKSON        CLOUDY    30  21  69 SW3       30.16R
LONDON         PTCLDY    29  21  72 SW5       30.18R WCI  24
SOMERSET       CLEAR     28  21  74 S6        30.22R WCI  22
MIDDLESBORO    CLOUDY    22  21  95 CALM      30.23R
MONTICELLO     SUNNY     23  21  92 NE3       30.22
$$





USA.gov is the U.S. government's official web portal to all federal, state and local government web resources and services.